Location: Kershaw
(34.5481°N, 80.5823°W)
Time: 15:38:31
(UTC+00:00)

Courier 1B Rocket - Pass Details

Date: 26 September 2022
Orbit: 920 x 1202 km, 28.2° (Epoch: 08 December)

Event Time Altitude Azimuth Distance (km) Brightness Sun altitude
Rises 01:15:25 0° 212° (SSW) 3,600 8.2 -25.4°
Reaches altitude 10° 01:19:02 10° 193° (SSW) 2,626 7.2 -26.1°
Enters shadow 01:20:04 13° 185° (S) 2,418 6.9 -26.3°
Maximum altitude 01:22:54 17° 155° (SSE) 2,149 - -26.8°
Drops below altitude 10° 01:26:43 10° 116° (ESE) 2,602 - -27.6°
Sets 01:30:16 0° 97° (E) 3,554 - -28.3°
